Miscellaneous Local Product
Issued by NWS Hastings, NE

Home | Current Version | Previous Version | Text Only | Print | Product List | Glossary On
Versions: 1 2 3 4 5 6 7 8 9 10 11 12 13 14 15 16 17 18 19 20 21 22 23 24 25 26 27 28 29 30 31 32 33 34 35 36 37 38 39 40 41 42 43 44 45 46 47 48 49 50
000
AXUS43 KGID 180402
MISGRI

GID CWA HOURLY WEATHER ROUNDUP
NATIONAL WEATHER SERVICE HASTINGS NE
1000 PM CST TUE JAN 17 2017

NOTE: "FAIR" INDICATES FEW OR NO CLOUDS BELOW 12,000 FEET WITH NO
SIGNIFICANT WEATHER AND/OR OBSTRUCTIONS TO VISIBILITY.

...SOUTH CENTRAL NEBRASKA...

CITY           SKY/WX    TMP DP  RH WIND       PRES   REMARKS
GRAND ISLAND   CLOUDY    32  30  92 S7        30.04S WCI  26
HASTINGS       CLEAR     34  29  82 S7        30.06S WCI  28
KEARNEY        CLOUDY    32  27  80 SW9       30.05R WCI  24
ORD            CLEAR     29  25  85 CALM      29.99S
YORK           CLEAR     32  32 100 SW8       30.06S WCI  25
AURORA         CLEAR     32  31  97 SW7       30.05S WCI  26
LEXINGTON      CLOUDY    33  26  76 S5        30.03R WCI  28
HOLDREGE       CLOUDY    33  27  78 S8        30.05R WCI  26
HEBRON         CLOUDY    32  30  92 S10       30.10S WCI  24

...NEBRASKA PANHANDLE...

CITY           SKY/WX    TMP DP  RH WIND       PRES   REMARKS
CHADRON        CLOUDY    18  14  84 SW8       29.95R WCI   8
ALLIANCE       CLOUDY    19  15  84 W8        29.95S WCI   9
SCOTTSBLUFF    CLOUDY    30  14  51 NW7       29.98S WCI  23
SIDNEY         CLOUDY    27  23  85 W6        29.99S WCI  20

...WESTERN AND NORTH CENTRAL NEBRASKA...

CITY           SKY/WX    TMP DP  RH WIND       PRES   REMARKS
VALENTINE      CLOUDY    27  18  69 W8        29.92F WCI  19
AINSWORTH      CLOUDY    33  28  81 SW12      29.92F WCI  24
ONEILL         CLOUDY    32  28  83 SW9       29.96S WCI  24
BROKEN BOW     CLEAR     28  25  88 CALM      29.99S
IMPERIAL       CLOUDY    30  27  88 SW8       30.02R WCI  22
NORTH PLATTE   CLEAR     25  22  88 N3        30.01R
MCCOOK         CLEAR     31  27  85 SW9       30.05R WCI  23

...EASTERN NEBRASKA...

CITY           SKY/WX    TMP DP  RH WIND       PRES   REMARKS
NORFOLK        CLOUDY    31  29  92 S9        30.00F WCI  23
SO SIOUX CITY  CLOUDY    28  26  92 SE6       30.03F WCI  22
TEKAMAH        CLOUDY    30  28  92 SE7       30.06F FOG     WCI  23
COLUMBUS       CLOUDY    30  28  93 SW5       30.05S WCI  25
ALBION         CLOUDY    31  30  93 CALM      30.01S
OMAHA EPPLEY   CLOUDY    26  22  84 SE7       30.08F FOG     WCI  18
OFFUTT AFB     CLEAR     24  24 100 E5        30.08F FOG     WCI  18
MILLARD        CLOUDY    28  26  94 CALM      30.08F FOG
LINCOLN        CLEAR     25  24  96 S7        30.09S WCI  17
NEBRASKA CITY  CLOUDY    28  28 100 S8        30.10S FOG     WCI  20
BEATRICE       CLOUDY    29  29  98 S7        30.11R WCI  22
FALLS CITY     CLEAR     29  28  96 S7        30.13S WCI  22

...NORTHERN KANSAS...

CITY           SKY/WX    TMP DP  RH WIND       PRES   REMARKS
GOODLAND       CLEAR     36  30  79 SW16      30.05R WCI  26
HILL CITY      CLEAR     32  26  78 SW7       30.10S WCI  26
NORTON         CLEAR     34  25  69 S7        30.06  WCI  28
PHILLIPSBURG   CLEAR     34  28  80 SW3       30.10S
SMITH CENTER   PTCLDY    28  25  86 S3        30.10F
HAYS           CLEAR     31  27  85 SW5       30.13R WCI  26
RUSSELL        CLEAR     30  27  88 S9        30.11S WCI  22
CONCORDIA      CLOUDY    34  29  82 S16       30.12R WCI  24
SALINA         CLEAR     30  27  88 SE5       30.15R WCI  25
TOPEKA         CLOUDY    31  26  82 S3        30.15F



USA.gov is the U.S. government's official web portal to all federal, state and local government web resources and services.